Weather in Pylemets

Russia / Nenets Autonomous Okrug     67°24′37″N   52°15′24″E
temp.,
°C
wind,
m/s
gust,
m/s
humid.,
%
clouds,
%
prec.,
mm/h
press.,
hPa
HPBL,
m
19 january, wed
wed1900:00−17n1198100 0.1 9989
03:00−18sw2210064 0.1 9989
06:00−17sw3498100 0.1 99766
09:00−15sw489699 0.2 996103
12:00−12ssw51194100 0.0 996188
15:00−12s61392100 0.0 994229
18:00−9s91694100 0.3 991577
21:00−8ssw101594100 1.6 989591
20 january, thu
thu2000:00−7ssw91593100 0.4 989532
03:00−7ssw81494100 0.9 989505
06:00−7ssw81494100 0.5 988508
09:00−6s81495100 1.4 988566
12:00−7ssw91495100 1.1 989551
15:00−7ssw91594100 2.3 989517
18:00−6ssw8159499 0.7 990504
21:00−6ssw81595100 1.6 991496
21 january, fri
fri2100:00−5ssw81593100 0.4 992421
03:00−5ssw7149292 0.6 995368
06:00−5ssw61295100 0.1 997304
09:00−4ssw61196100 0.3 999309
12:00−3ssw61196100 0.5 1001359
15:00−3ssw71196100 1.3 1004431
18:00−4ssw61295100 0.6 1006400
21:00−5sw71296100 1.2 1008420
22 january, sat
sat2200:00−5sw61295100 0.8 1011384
03:00−6sw61194100 0.9 1013314
06:00−8sw61095100 0.3 1015256
09:00−8sw5995100 0.4 1017212
12:00−8sw489599 0.2 1019182
15:00−9wsw369695 0.3 1021105
18:00−14wsw339986 0.1 102230
21:00−17wsw2210083 0.1 102418
23 january, sun
sun2300:00−17sw3310096 0.0 102529
03:00−13sw369676 0.1 102590
06:00−14sw489769 0.1 1025104
09:00−16sw4109733 0.1 1026129
12:00−16ssw61290100 0.0 1026187
15:00−15ssw61490100 0.0 1026270
18:00−13ssw7158779 0.0 1025306
21:00−13ssw7178838 0.0 1024353